Accueil
METAR-TAF:

METAR-TAF

Aéroports :

Bric della Croce

Turin, Italie

latitude: 45-02N, longitude: 007-44E, altitude: 709 m

Observation

Le bulletin a été fait il y a 34 minutes, à 07:55 UTC
Vent 4 kt de nord
Température 5°C
Humidité 100%
Pression 1025 hPa
Visibilité 10 km ou plus
Nuages épars à une hauteur de 4000 ft

METAR: LIMK 170755Z 35004KT 9999 SCT040 05/05 Q1025 RMK BKN SCT070 VAL NIL VIS MIN 9999

Heure: 09:29 (08:29 UTC)


TAF: absent

Observations et prévisions météorologiques de plus de 4000 aéroports (messages METAR et TAF).

Les stations disponibles sont représentées par des disques jaunes et rouges sur la carte.

Passer la souris dessus pour voir le nom de la station.

Cliquer dessus pour voir les observations et prévisions météorologiques.

Pour changer de carte: cliquez sur les boutons verts avec une croix noire pour zoomer, sur le bouton vert avec un tiret pour effectuer un zoom arrière, ou sur les flèches vertes pour les cartes adjacentes.


METAR-TAF: